Avoca, PA

5:50 PM EST on November 15, 2019 (GMT -0500)
Wilkes-Barre-Scranton International

Weather History for KAVP - September, 2019

Change the Weather History Date:

Monday, September 2, 2019

  Actual Average Record
Temperature  
Mean Temperature 72 °F 67 °F  
Max Temperature 80 °F 77 °F 99 °F (1953)
Min Temperature 63 °F 57 °F 43 °F (2001)
Degree Days  
Heating Degree Days 0 2  
Month to date heating degree days 0 3  
Since 1 July heating degree days 1 29  
Cooling Degree Days 7 3  
Month to date cooling degree days 9 7  
Year to date cooling degree days 748 531  
Growing Degree Days 23 (Base 50)    
Moisture  
Dew Point 64 °F    
Average Humidity 78    
Maximum Humidity 93    
Minimum Humidity 62    
Precipitation  
Precipitation 0.04 in 0.12 in 1.32 in (1990)
Month to date precipitation 0.05 0.24  
Year to date precipitation 37.71 25.27  
Sea Level Pressure  
Sea Level Pressure 30.03 in    
Wind  
Wind Speed 5 mph (WSW)    
Max Wind Speed 16 mph    
Max Gust Speed 23 mph    
Visibility 10 miles    
Events Rain    
T = Trace of Precipitation, MM = Missing Value Source: NWS Daily Summary

Daily Weather History Graph

Daily Weather History Graph

Search for Another Location

Airport or City:

Astronomy

Sep. 02, 2019 Rise Set
Actual Time 6:29 AM EDT 7:34 PM EDT
Civil Twilight 6:01 AM EDT 8:02 PM EDT
Nautical Twilight 5:27 AM EDT 8:36 PM EDT
Astronomical Twilight 4:52 AM EDT 9:11 PM EDT
Moon 10:11 AM EDT (9/2) 9:52 PM EDT (9/2)
Length of Visible Light 14h 01m
Length of Day
13h 04m
Waxing Crescent, 15% of the Moon is Illuminated
Sep 2
Waxing Crescent
Sep 5
First Quarter
Sep 14
Full
Sep 21
Last Quarter
Sep 28
New

Hourly Weather History & Observations

Time (EDT) Temp. Dew Point Humidity Pressure Visibility Wind Dir Wind Speed Gust Speed Precip Events Conditions
12:54 AM 68.0 °F 61.0 °F 78% 30.16 in 10.0 mi Variable 6.9 mph - N/A   Mostly Cloudy
1:54 AM 69.1 °F 61.0 °F 75% 30.14 in 10.0 mi Calm Calm - N/A   Mostly Cloudy
2:54 AM 68.0 °F 61.0 °F 78% 30.12 in 10.0 mi Variable 5.8 mph - N/A   Mostly Cloudy
3:17 AM 68.0 °F 61.0 °F 78% 30.13 in 10.0 mi Calm Calm - N/A   Overcast
3:54 AM 68.0 °F 61.0 °F 78% 30.10 in 10.0 mi Calm Calm - N/A   Overcast
4:54 AM 69.1 °F 62.1 °F 78% 30.07 in 10.0 mi Variable 5.8 mph - N/A   Overcast
5:54 AM 69.1 °F 63.0 °F 81% 30.07 in 10.0 mi South 8.1 mph - N/A   Overcast
6:09 AM 69.1 °F 63.0 °F 81% 30.08 in 10.0 mi Variable 6.9 mph - N/A   Overcast
6:54 AM 68.0 °F 64.0 °F 87% 30.04 in 7.0 mi Variable 4.6 mph - 0.02 in Rain Light Rain
7:54 AM 68.0 °F 64.9 °F 90% 30.03 in 10.0 mi West 3.5 mph - 0.00 in   Mostly Cloudy
8:01 AM 68.0 °F 64.9 °F 90% 30.05 in 10.0 mi WSW 3.5 mph - N/A   Mostly Cloudy
8:10 AM 68.0 °F 64.9 °F 90% 30.05 in 10.0 mi Variable 4.6 mph - N/A   Overcast
8:19 AM 69.1 °F 64.9 °F 87% 30.04 in 9.0 mi South 8.1 mph - 0.00 in Rain Light Rain
8:54 AM 68.0 °F 64.9 °F 90% 30.01 in 8.0 mi SW 9.2 mph - 0.00 in Rain Light Rain
9:12 AM 69.1 °F 64.9 °F 87% 30.04 in 10.0 mi SSW 9.2 mph 19.6 mph 0.00 in   Overcast
9:54 AM 69.1 °F 66.9 °F 93% 30.02 in 9.0 mi WSW 4.6 mph - 0.00 in Rain Light Rain
10:54 AM 69.1 °F 64.9 °F 87% 30.03 in 8.0 mi WSW 10.4 mph 17.3 mph 0.00 in   Overcast
11:21 AM 70.0 °F 66.0 °F 87% 30.04 in 10.0 mi SW 8.1 mph - 0.00 in   Overcast
11:54 AM 71.1 °F 66.0 °F 84% 30.02 in 10.0 mi SW 11.5 mph - 0.00 in   Overcast
12:38 PM 72.0 °F 66.0 °F 81% 30.03 in 10.0 mi SW 12.7 mph - N/A   Overcast
12:50 PM 71.6 °F 66.2 °F 83% 30.03 in 10.0 mi SW 10.4 mph - N/A   Overcast
12:54 PM 72.0 °F 66.0 °F 81% 30.01 in 10.0 mi SW 8.1 mph - N/A   Overcast
1:54 PM 75.0 °F 66.0 °F 73% 29.99 in 10.0 mi SW 10.4 mph - N/A   Mostly Cloudy
2:54 PM 77.0 °F 64.9 °F 66% 29.96 in 10.0 mi WSW 8.1 mph - N/A   Overcast
3:54 PM 79.0 °F 64.9 °F 62% 29.94 in 10.0 mi SW 10.4 mph - N/A   Partly Cloudy
4:54 PM 77.0 °F 64.0 °F 64% 29.96 in 10.0 mi SW 6.9 mph - N/A   Partly Cloudy
5:54 PM 73.9 °F 66.0 °F 76% 29.96 in 9.0 mi NNW 12.7 mph - N/A   Overcast
6:04 PM 71.1 °F 68.0 °F 90% 29.98 in 6.0 mi NNW 5.8 mph - 0.02 in Rain Light Rain
6:54 PM 71.1 °F 68.0 °F 90% 29.98 in 10.0 mi Calm Calm - 0.02 in   Partly Cloudy
7:54 PM 69.1 °F 66.9 °F 93% 29.98 in 10.0 mi Calm Calm - N/A   Scattered Clouds
8:54 PM 70.0 °F 66.0 °F 87% 30.00 in 10.0 mi Calm Calm - N/A   Mostly Cloudy
9:54 PM 69.1 °F 66.0 °F 90% 30.02 in 10.0 mi Calm Calm - N/A   Mostly Cloudy
10:54 PM 66.0 °F 64.0 °F 93% 30.03 in 10.0 mi Variable 3.5 mph - N/A   Mostly Cloudy
11:54 PM 68.0 °F 61.0 °F 78% 30.04 in 10.0 mi NNW 3.5 mph - N/A   Partly Cloudy